owner,sensor,date,latitude,longitude,mass_concentration_of_chlorophyll_in_sea_water,qcFlag 
SCCF RECON,ioos:station:SCCF:11:1,2015-09-01T00:00:00Z,26.4679,-82.0631,6.93,1111122 
SCCF RECON,ioos:station:SCCF:11:1,2015-09-01T00:15:00Z,26.4679,-82.0631,6.74,1111122 
SCCF RECON,ioos:station:SCCF:11:1,2015-09-01T00:30:00Z,26.4679,-82.0631,6.47,1111122 
SCCF RECON,ioos:station:SCCF:11:1,2015-09-01T00:45:00Z,26.4679,-82.0631,6.35,1111122 
SCCF RECON,ioos:station:SCCF:11:1,2015-09-01T01:00:00Z,26.4679,-82.0631,6.25,1111122 
SCCF RECON,ioos:station:SCCF:11:1,2015-09-01T01:15:00Z,26.4679,-82.0631,6.06,1111122 
SCCF RECON,ioos:station:SCCF:11:1,2015-09-01T01:30:00Z,26.4679,-82.0631,6.04,1111122 
SCCF RECON,ioos:station:SCCF:11:1,2015-09-01T01:45:00Z,26.4679,-82.0631,5.92,1111122 
SCCF RECON,ioos:station:SCCF:11:1,2015-09-01T02:00:00Z,26.4679,-82.0631,6.11,1111122 
SCCF RECON,ioos:station:SCCF:11:1,2015-09-01T02:15:00Z,26.4679,-82.0631,6.81,1111122 
SCCF RECON,ioos:station:SCCF:11:1,2015-09-01T02:30:00Z,26.4679,-82.0631,5.75,1111122 
SCCF RECON,ioos:station:SCCF:11:1,2015-09-01T02:45:00Z,26.4679,-82.0631,5.71,1111122 
SCCF RECON,ioos:station:SCCF:11:1,2015-09-01T03:00:00Z,26.4679,-82.0631,6.21,1111122 
SCCF RECON,ioos:station:SCCF:11:1,2015-09-01T03:15:00Z,26.4679,-82.0631,6.83,1111122 
SCCF RECON,ioos:station:SCCF:11:1,2015-09-01T03:30:00Z,26.4679,-82.0631,7.22,1111122 
SCCF RECON,ioos:station:SCCF:11:1,2015-09-01T03:45:00Z,26.4679,-82.0631,6.99,1111122 
SCCF RECON,ioos:station:SCCF:11:1,2015-09-01T04:00:00Z,26.4679,-82.0631,6.35,1111122 
SCCF RECON,ioos:station:SCCF:11:1,2015-09-01T04:15:00Z,26.4679,-82.0631,6.51,1111122 
SCCF RECON,ioos:station:SCCF:11:1,2015-09-01T04:30:00Z,26.4679,-82.0631,6.41,1111122 
SCCF RECON,ioos:station:SCCF:11:1,2015-09-01T04:45:00Z,26.4679,-82.0631,6.28,1111122 
SCCF RECON,ioos:station:SCCF:11:1,2015-09-01T05:00:00Z,26.4679,-82.0631,6.21,1111122 
SCCF RECON,ioos:station:SCCF:11:1,2015-09-01T05:15:00Z,26.4679,-82.0631,6.17,1111122 
SCCF RECON,ioos:station:SCCF:11:1,2015-09-01T05:30:00Z,26.4679,-82.0631,6.24,1111122 
SCCF RECON,ioos:station:SCCF:11:1,2015-09-01T05:45:00Z,26.4679,-82.0631,6.31,1111122 
SCCF RECON,ioos:station:SCCF:11:1,2015-09-01T06:00:00Z,26.4679,-82.0631,6.25,1111122 
SCCF RECON,ioos:station:SCCF:11:1,2015-09-01T06:15:00Z,26.4679,-82.0631,6.21,1111122 
SCCF RECON,ioos:station:SCCF:11:1,2015-09-01T06:30:00Z,26.4679,-82.0631,6.18,1111122 
SCCF RECON,ioos:station:SCCF:11:1,2015-09-01T06:45:00Z,26.4679,-82.0631,6.52,1111122 
SCCF RECON,ioos:station:SCCF:11:1,2015-09-01T07:00:00Z,26.4679,-82.0631,5.63,1111122 
SCCF RECON,ioos:station:SCCF:11:1,2015-09-01T07:15:00Z,26.4679,-82.0631,5.18,1111122 
SCCF RECON,ioos:station:SCCF:11:1,2015-09-01T07:30:00Z,26.4679,-82.0631,6.16,1111122 
SCCF RECON,ioos:station:SCCF:11:1,2015-09-01T07:45:00Z,26.4679,-82.0631,6.35,1111122 
SCCF RECON,ioos:station:SCCF:11:1,2015-09-01T08:00:00Z,26.4679,-82.0631,6.15,1111122 
SCCF RECON,ioos:station:SCCF:11:1,2015-09-01T08:15:00Z,26.4679,-82.0631,6.1,1111122 
SCCF RECON,ioos:station:SCCF:11:1,2015-09-01T08:30:00Z,26.4679,-82.0631,6.05,1111122 
SCCF RECON,ioos:station:SCCF:11:1,2015-09-01T08:45:00Z,26.4679,-82.0631,5.24,1111122 
SCCF RECON,ioos:station:SCCF:11:1,2015-09-01T09:00:00Z,26.4679,-82.0631,4.71,1111122 
SCCF RECON,ioos:station:SCCF:11:1,2015-09-01T09:15:00Z,26.4679,-82.0631,4.62,1111122 
SCCF RECON,ioos:station:SCCF:11:1,2015-09-01T09:30:00Z,26.4679,-82.0631,4.95,1111122 
SCCF RECON,ioos:station:SCCF:11:1,2015-09-01T09:45:00Z,26.4679,-82.0631,4.86,1111122 
SCCF RECON,ioos:station:SCCF:11:1,2015-09-01T10:00:00Z,26.4679,-82.0631,4.66,1111122 
SCCF RECON,ioos:station:SCCF:11:1,2015-09-01T10:15:00Z,26.4679,-82.0631,4.67,1111122 
SCCF RECON,ioos:station:SCCF:11:1,2015-09-01T10:30:00Z,26.4679,-82.0631,4.52,1111122 
SCCF RECON,ioos:station:SCCF:11:1,2015-09-01T10:45:00Z,26.4679,-82.0631,4.73,1111122 
SCCF RECON,ioos:station:SCCF:11:1,2015-09-01T11:00:00Z,26.4679,-82.0631,4.49,1111122 
SCCF RECON,ioos:station:SCCF:11:1,2015-09-01T11:15:00Z,26.4679,-82.0631,4.45,1111122 
SCCF RECON,ioos:station:SCCF:11:1,2015-09-01T11:30:00Z,26.4679,-82.0631,4.3,1111122 
SCCF RECON,ioos:station:SCCF:11:1,2015-09-01T11:45:00Z,26.4679,-82.0631,4.23,1111122 
SCCF RECON,ioos:station:SCCF:11:1,2015-09-01T12:00:00Z,26.4679,-82.0631,4.09,1111122 
SCCF RECON,ioos:station:SCCF:11:1,2015-09-01T12:15:00Z,26.4679,-82.0631,4.03,1111122 
SCCF RECON,ioos:station:SCCF:11:1,2015-09-01T12:30:00Z,26.4679,-82.0631,3.97,1111122 
SCCF RECON,ioos:station:SCCF:11:1,2015-09-01T12:45:00Z,26.4679,-82.0631,3.92,1111122 
SCCF RECON,ioos:station:SCCF:11:1,2015-09-01T13:00:00Z,26.4679,-82.0631,3.98,1111122 
SCCF RECON,ioos:station:SCCF:11:1,2015-09-01T13:15:00Z,26.4679,-82.0631,3.98,1111122 
SCCF RECON,ioos:station:SCCF:11:1,2015-09-01T13:30:00Z,26.4679,-82.0631,4.02,1111122 
SCCF RECON,ioos:station:SCCF:11:1,2015-09-01T13:45:00Z,26.4679,-82.0631,4.04,1111122 
SCCF RECON,ioos:station:SCCF:11:1,2015-09-01T14:00:00Z,26.4679,-82.0631,4.13,1111122 
SCCF RECON,ioos:station:SCCF:11:1,2015-09-01T14:15:00Z,26.4679,-82.0631,4.19,1111122 
SCCF RECON,ioos:station:SCCF:11:1,2015-09-01T14:30:00Z,26.4679,-82.0631,4.69,1111122 
SCCF RECON,ioos:station:SCCF:11:1,2015-09-01T14:45:00Z,26.4679,-82.0631,4.76,1111122 
SCCF RECON,ioos:station:SCCF:11:1,2015-09-01T15:00:00Z,26.4679,-82.0631,4.73,1111122 
SCCF RECON,ioos:station:SCCF:11:1,2015-09-01T15:15:00Z,26.4679,-82.0631,5.4,1111122 
SCCF RECON,ioos:station:SCCF:11:1,2015-09-01T15:30:00Z,26.4679,-82.0631,6.2,1111122 
SCCF RECON,ioos:station:SCCF:11:1,2015-09-01T15:45:00Z,26.4679,-82.0631,6.56,1111122 
SCCF RECON,ioos:station:SCCF:11:1,2015-09-01T16:00:00Z,26.4679,-82.0631,6.55,1111122 
SCCF RECON,ioos:station:SCCF:11:1,2015-09-01T16:15:00Z,26.4679,-82.0631,6.42,1111122 
SCCF RECON,ioos:station:SCCF:11:1,2015-09-01T16:30:00Z,26.4679,-82.0631,8.97,1111122 
SCCF RECON,ioos:station:SCCF:11:1,2015-09-01T16:45:00Z,26.4679,-82.0631,8.04,1111122 
SCCF RECON,ioos:station:SCCF:11:1,2015-09-01T17:00:00Z,26.4679,-82.0631,7.64,1111122 
SCCF RECON,ioos:station:SCCF:11:1,2015-09-01T17:15:00Z,26.4679,-82.0631,7.68,1111122 
SCCF RECON,ioos:station:SCCF:11:1,2015-09-01T17:30:00Z,26.4679,-82.0631,11.15,1111122 
SCCF RECON,ioos:station:SCCF:11:1,2015-09-01T17:45:00Z,26.4679,-82.0631,8.43,1111122 
SCCF RECON,ioos:station:SCCF:11:1,2015-09-01T18:00:00Z,26.4679,-82.0631,8.47,1111122 
SCCF RECON,ioos:station:SCCF:11:1,2015-09-01T18:15:00Z,26.4679,-82.0631,9.29,1111122 
SCCF RECON,ioos:station:SCCF:11:1,2015-09-01T18:30:00Z,26.4679,-82.0631,9.58,1111122 
SCCF RECON,ioos:station:SCCF:11:1,2015-09-01T18:45:00Z,26.4679,-82.0631,9.33,1111122 
SCCF RECON,ioos:station:SCCF:11:1,2015-09-01T19:00:00Z,26.4679,-82.0631,9.08,1111122 
SCCF RECON,ioos:station:SCCF:11:1,2015-09-01T19:15:00Z,26.4679,-82.0631,9.26,1111122 
SCCF RECON,ioos:station:SCCF:11:1,2015-09-01T19:30:00Z,26.4679,-82.0631,8.32,1111122 
SCCF RECON,ioos:station:SCCF:11:1,2015-09-01T19:45:00Z,26.4679,-82.0631,9.64,1111122 
SCCF RECON,ioos:station:SCCF:11:1,2015-09-01T20:00:00Z,26.4679,-82.0631,8.72,1111122 
SCCF RECON,ioos:station:SCCF:11:1,2015-09-01T20:15:00Z,26.4679,-82.0631,9.16,1111122 
SCCF RECON,ioos:station:SCCF:11:1,2015-09-01T20:30:00Z,26.4679,-82.0631,10.15,1111122 
SCCF RECON,ioos:station:SCCF:11:1,2015-09-01T20:45:00Z,26.4679,-82.0631,9.76,1111122 
SCCF RECON,ioos:station:SCCF:11:1,2015-09-01T21:00:00Z,26.4679,-82.0631,10.51,1111122 
SCCF RECON,ioos:station:SCCF:11:1,2015-09-01T21:15:00Z,26.4679,-82.0631,10.34,1111122 
SCCF RECON,ioos:station:SCCF:11:1,2015-09-01T21:30:00Z,26.4679,-82.0631,8.98,1111122 
SCCF RECON,ioos:station:SCCF:11:1,2015-09-01T21:45:00Z,26.4679,-82.0631,8.58,1111122 
SCCF RECON,ioos:station:SCCF:11:1,2015-09-01T22:00:00Z,26.4679,-82.0631,9.03,1111122 
SCCF RECON,ioos:station:SCCF:11:1,2015-09-01T22:15:00Z,26.4679,-82.0631,9.32,1111122 
SCCF RECON,ioos:station:SCCF:11:1,2015-09-01T22:30:00Z,26.4679,-82.0631,9.47,1111122 
SCCF RECON,ioos:station:SCCF:11:1,2015-09-01T22:45:00Z,26.4679,-82.0631,9.44,1111122 
SCCF RECON,ioos:station:SCCF:11:1,2015-09-01T23:00:00Z,26.4679,-82.0631,9.34,1111122 
SCCF RECON,ioos:station:SCCF:11:1,2015-09-01T23:15:00Z,26.4679,-82.0631,9.64,1111122 
SCCF RECON,ioos:station:SCCF:11:1,2015-09-01T23:30:00Z,26.4679,-82.0631,9.68,1111122 
SCCF RECON,ioos:station:SCCF:11:1,2015-09-01T23:45:00Z,26.4679,-82.0631,9.93,1111122 
SCCF RECON,ioos:station:SCCF:11:1,2015-09-02T00:00:00Z,26.4679,-82.0631,9.93,1111122 
SCCF RECON,ioos:station:SCCF:11:1,2015-09-02T00:15:00Z,26.4679,-82.0631,9.43,1111122 
SCCF RECON,ioos:station:SCCF:11:1,2015-09-02T00:30:00Z,26.4679,-82.0631,9.27,1111122 
SCCF RECON,ioos:station:SCCF:11:1,2015-09-02T00:45:00Z,26.4679,-82.0631,9.24,1111122 
SCCF RECON,ioos:station:SCCF:11:1,2015-09-02T01:00:00Z,26.4679,-82.0631,8.7,1111122 
SCCF RECON,ioos:station:SCCF:11:1,2015-09-02T01:15:00Z,26.4679,-82.0631,8.47,1111122 
SCCF RECON,ioos:station:SCCF:11:1,2015-09-02T01:30:00Z,26.4679,-82.0631,8.16,1111122 
SCCF RECON,ioos:station:SCCF:11:1,2015-09-02T01:45:00Z,26.4679,-82.0631,7.97,1111122 
SCCF RECON,ioos:station:SCCF:11:1,2015-09-02T02:00:00Z,26.4679,-82.0631,7.84,1111122 
SCCF RECON,ioos:station:SCCF:11:1,2015-09-02T02:15:00Z,26.4679,-82.0631,7.8,1111122 
SCCF RECON,ioos:station:SCCF:11:1,2015-09-02T02:30:00Z,26.4679,-82.0631,8.02,1111122 
SCCF RECON,ioos:station:SCCF:11:1,2015-09-02T02:45:00Z,26.4679,-82.0631,8.72,1111122 
SCCF RECON,ioos:station:SCCF:11:1,2015-09-02T03:00:00Z,26.4679,-82.0631,8.21,1111122 
SCCF RECON,ioos:station:SCCF:11:1,2015-09-02T03:15:00Z,26.4679,-82.0631,8.54,1111122 
SCCF RECON,ioos:station:SCCF:11:1,2015-09-02T03:30:00Z,26.4679,-82.0631,7.6,1111122 
SCCF RECON,ioos:station:SCCF:11:1,2015-09-02T03:45:00Z,26.4679,-82.0631,8.02,1111122 
SCCF RECON,ioos:station:SCCF:11:1,2015-09-02T04:00:00Z,26.4679,-82.0631,8.22,1111122 
SCCF RECON,ioos:station:SCCF:11:1,2015-09-02T04:15:00Z,26.4679,-82.0631,8.53,1111122 
SCCF RECON,ioos:station:SCCF:11:1,2015-09-02T04:30:00Z,26.4679,-82.0631,9.73,1111122 
SCCF RECON,ioos:station:SCCF:11:1,2015-09-02T04:45:00Z,26.4679,-82.0631,9.32,1111122 
SCCF RECON,ioos:station:SCCF:11:1,2015-09-02T05:00:00Z,26.4679,-82.0631,8.68,1111122 
SCCF RECON,ioos:station:SCCF:11:1,2015-09-02T05:15:00Z,26.4679,-82.0631,8.35,1111122 
SCCF RECON,ioos:station:SCCF:11:1,2015-09-02T05:30:00Z,26.4679,-82.0631,8.51,1111122 
SCCF RECON,ioos:station:SCCF:11:1,2015-09-02T05:45:00Z,26.4679,-82.0631,8.85,1111122 
SCCF RECON,ioos:station:SCCF:11:1,2015-09-02T06:00:00Z,26.4679,-82.0631,8.42,1111122 
SCCF RECON,ioos:station:SCCF:11:1,2015-09-02T06:15:00Z,26.4679,-82.0631,8.85,1111122 
SCCF RECON,ioos:station:SCCF:11:1,2015-09-02T06:30:00Z,26.4679,-82.0631,8.3,1111122 
SCCF RECON,ioos:station:SCCF:11:1,2015-09-02T06:45:00Z,26.4679,-82.0631,8.59,1111122 
SCCF RECON,ioos:station:SCCF:11:1,2015-09-02T07:00:00Z,26.4679,-82.0631,9.81,1111122 
SCCF RECON,ioos:station:SCCF:11:1,2015-09-02T07:15:00Z,26.4679,-82.0631,9.3,1111122 
SCCF RECON,ioos:station:SCCF:11:1,2015-09-02T07:30:00Z,26.4679,-82.0631,9.67,1111122 
SCCF RECON,ioos:station:SCCF:11:1,2015-09-02T07:45:00Z,26.4679,-82.0631,9.6,1111122 
SCCF RECON,ioos:station:SCCF:11:1,2015-09-02T08:00:00Z,26.4679,-82.0631,9.03,1111122 
SCCF RECON,ioos:station:SCCF:11:1,2015-09-02T08:15:00Z,26.4679,-82.0631,9.31,1111122 
SCCF RECON,ioos:station:SCCF:11:1,2015-09-02T08:30:00Z,26.4679,-82.0631,9.76,1111122 
SCCF RECON,ioos:station:SCCF:11:1,2015-09-02T08:45:00Z,26.4679,-82.0631,9.97,1111122 
SCCF RECON,ioos:station:SCCF:11:1,2015-09-02T09:00:00Z,26.4679,-82.0631,9.66,1111122 
SCCF RECON,ioos:station:SCCF:11:1,2015-09-02T09:15:00Z,26.4679,-82.0631,9.58,1111122 
SCCF RECON,ioos:station:SCCF:11:1,2015-09-02T09:30:00Z,26.4679,-82.0631,8.99,1111122 
SCCF RECON,ioos:station:SCCF:11:1,2015-09-02T09:45:00Z,26.4679,-82.0631,8.42,1111122 
SCCF RECON,ioos:station:SCCF:11:1,2015-09-02T10:00:00Z,26.4679,-82.0631,8.35,1111122 
SCCF RECON,ioos:station:SCCF:11:1,2015-09-02T10:15:00Z,26.4679,-82.0631,7.98,1111122 
SCCF RECON,ioos:station:SCCF:11:1,2015-09-02T10:30:00Z,26.4679,-82.0631,8.09,1111122 
SCCF RECON,ioos:station:SCCF:11:1,2015-09-02T10:45:00Z,26.4679,-82.0631,7.98,1111122 
SCCF RECON,ioos:station:SCCF:11:1,2015-09-02T11:00:00Z,26.4679,-82.0631,7.7,1111122 
SCCF RECON,ioos:station:SCCF:11:1,2015-09-02T11:15:00Z,26.4679,-82.0631,7.53,1111122 
SCCF RECON,ioos:station:SCCF:11:1,2015-09-02T11:30:00Z,26.4679,-82.0631,7.08,1111122 
SCCF RECON,ioos:station:SCCF:11:1,2015-09-02T11:45:00Z,26.4679,-82.0631,6.82,1111122 
SCCF RECON,ioos:station:SCCF:11:1,2015-09-02T12:00:00Z,26.4679,-82.0631,6.71,1111122 
SCCF RECON,ioos:station:SCCF:11:1,2015-09-02T12:15:00Z,26.4679,-82.0631,6.72,1111122 
SCCF RECON,ioos:station:SCCF:11:1,2015-09-02T12:30:00Z,26.4679,-82.0631,6.57,1111122 
SCCF RECON,ioos:station:SCCF:11:1,2015-09-02T12:45:00Z,26.4679,-82.0631,6.53,1111122 
SCCF RECON,ioos:station:SCCF:11:1,2015-09-02T13:00:00Z,26.4679,-82.0631,6.5,1111122 
SCCF RECON,ioos:station:SCCF:11:1,2015-09-02T13:15:00Z,26.4679,-82.0631,6.79,1111122 
SCCF RECON,ioos:station:SCCF:11:1,2015-09-02T13:30:00Z,26.4679,-82.0631,6.79,1111122 
SCCF RECON,ioos:station:SCCF:11:1,2015-09-02T13:45:00Z,26.4679,-82.0631,6.68,1111122 
SCCF RECON,ioos:station:SCCF:11:1,2015-09-02T14:00:00Z,26.4679,-82.0631,6.56,1111122 
SCCF RECON,ioos:station:SCCF:11:1,2015-09-02T14:15:00Z,26.4679,-82.0631,6.4,1111122 
SCCF RECON,ioos:station:SCCF:11:1,2015-09-02T14:30:00Z,26.4679,-82.0631,6.76,1111122 
SCCF RECON,ioos:station:SCCF:11:1,2015-09-02T14:45:00Z,26.4679,-82.0631,6.97,1111122 
SCCF RECON,ioos:station:SCCF:11:1,2015-09-02T15:00:00Z,26.4679,-82.0631,6.74,1111122 
SCCF RECON,ioos:station:SCCF:11:1,2015-09-02T15:15:00Z,26.4679,-82.0631,7.23,1111122 
SCCF RECON,ioos:station:SCCF:11:1,2015-09-02T15:30:00Z,26.4679,-82.0631,7.64,1111122 
SCCF RECON,ioos:station:SCCF:11:1,2015-09-02T15:45:00Z,26.4679,-82.0631,8.12,1111122 
SCCF RECON,ioos:station:SCCF:11:1,2015-09-02T16:00:00Z,26.4679,-82.0631,9.08,1111122 
SCCF RECON,ioos:station:SCCF:11:1,2015-09-02T16:15:00Z,26.4679,-82.0631,9.32,1111122 
SCCF RECON,ioos:station:SCCF:11:1,2015-09-02T16:30:00Z,26.4679,-82.0631,9.79,1111122 
SCCF RECON,ioos:station:SCCF:11:1,2015-09-02T16:45:00Z,26.4679,-82.0631,12.89,1111122 
SCCF RECON,ioos:station:SCCF:11:1,2015-09-02T17:00:00Z,26.4679,-82.0631,22.05,1111122 
SCCF RECON,ioos:station:SCCF:11:1,2015-09-02T17:15:00Z,26.4679,-82.0631,22.53,1111122 
SCCF RECON,ioos:station:SCCF:11:1,2015-09-02T17:30:00Z,26.4679,-82.0631,21.04,1111122 
SCCF RECON,ioos:station:SCCF:11:1,2015-09-02T17:45:00Z,26.4679,-82.0631,21.79,1111122 
SCCF RECON,ioos:station:SCCF:11:1,2015-09-02T18:00:00Z,26.4679,-82.0631,19.97,1111122 
SCCF RECON,ioos:station:SCCF:11:1,2015-09-02T18:15:00Z,26.4679,-82.0631,12.33,1111122 
SCCF RECON,ioos:station:SCCF:11:1,2015-09-02T18:30:00Z,26.4679,-82.0631,17.88,1111122 
SCCF RECON,ioos:station:SCCF:11:1,2015-09-02T18:45:00Z,26.4679,-82.0631,14.16,1111122 
SCCF RECON,ioos:station:SCCF:11:1,2015-09-02T19:00:00Z,26.4679,-82.0631,13.36,1111122 
SCCF RECON,ioos:station:SCCF:11:1,2015-09-02T19:15:00Z,26.4679,-82.0631,13.78,1111122 
SCCF RECON,ioos:station:SCCF:11:1,2015-09-02T19:30:00Z,26.4679,-82.0631,12.78,1111122 
SCCF RECON,ioos:station:SCCF:11:1,2015-09-02T19:45:00Z,26.4679,-82.0631,13.63,1111122 
SCCF RECON,ioos:station:SCCF:11:1,2015-09-02T20:00:00Z,26.4679,-82.0631,12.23,1111122 
SCCF RECON,ioos:station:SCCF:11:1,2015-09-02T20:15:00Z,26.4679,-82.0631,14.29,1111122 
SCCF RECON,ioos:station:SCCF:11:1,2015-09-02T20:30:00Z,26.4679,-82.0631,14.35,1111122 
SCCF RECON,ioos:station:SCCF:11:1,2015-09-02T20:45:00Z,26.4679,-82.0631,13.89,1111122 
SCCF RECON,ioos:station:SCCF:11:1,2015-09-02T21:00:00Z,26.4679,-82.0631,14.33,1111122 
SCCF RECON,ioos:station:SCCF:11:1,2015-09-02T21:30:00Z,26.4679,-82.0631,14.04,1111122 
SCCF RECON,ioos:station:SCCF:11:1,2015-09-02T21:45:00Z,26.4679,-82.0631,15.0,1111122 
SCCF RECON,ioos:station:SCCF:11:1,2015-09-02T22:00:00Z,26.4679,-82.0631,15.87,1111122 
SCCF RECON,ioos:station:SCCF:11:1,2015-09-02T22:15:00Z,26.4679,-82.0631,14.72,1111122 
SCCF RECON,ioos:station:SCCF:11:1,2015-09-02T22:30:00Z,26.4679,-82.0631,13.99,1111122 
SCCF RECON,ioos:station:SCCF:11:1,2015-09-02T22:45:00Z,26.4679,-82.0631,12.87,1111122 
SCCF RECON,ioos:station:SCCF:11:1,2015-09-02T23:00:00Z,26.4679,-82.0631,12.78,1111122 
SCCF RECON,ioos:station:SCCF:11:1,2015-09-02T23:15:00Z,26.4679,-82.0631,12.65,1111122 
SCCF RECON,ioos:station:SCCF:11:1,2015-09-02T23:30:00Z,26.4679,-82.0631,11.37,1111122 
SCCF RECON,ioos:station:SCCF:11:1,2015-09-02T23:45:00Z,26.4679,-82.0631,11.18,1111122 
SCCF RECON,ioos:station:SCCF:11:1,2015-09-03T00:00:00Z,26.4679,-82.0631,11.43,1111122 
SCCF RECON,ioos:station:SCCF:11:1,2015-09-03T00:15:00Z,26.4679,-82.0631,11.2,1111122 
SCCF RECON,ioos:station:SCCF:11:1,2015-09-03T00:30:00Z,26.4679,-82.0631,10.31,1111122 
SCCF RECON,ioos:station:SCCF:11:1,2015-09-03T00:45:00Z,26.4679,-82.0631,10.03,1111122 
SCCF RECON,ioos:station:SCCF:11:1,2015-09-03T01:00:00Z,26.4679,-82.0631,9.66,1111122 
SCCF RECON,ioos:station:SCCF:11:1,2015-09-03T01:15:00Z,26.4679,-82.0631,9.74,1111122 
SCCF RECON,ioos:station:SCCF:11:1,2015-09-03T01:30:00Z,26.4679,-82.0631,9.7,1111122 
SCCF RECON,ioos:station:SCCF:11:1,2015-09-03T01:45:00Z,26.4679,-82.0631,10.24,1111122 
SCCF RECON,ioos:station:SCCF:11:1,2015-09-03T02:00:00Z,26.4679,-82.0631,9.89,1111122 
SCCF RECON,ioos:station:SCCF:11:1,2015-09-03T02:15:00Z,26.4679,-82.0631,9.75,1111122 
SCCF RECON,ioos:station:SCCF:11:1,2015-09-03T02:30:00Z,26.4679,-82.0631,9.87,1111122 
SCCF RECON,ioos:station:SCCF:11:1,2015-09-03T02:45:00Z,26.4679,-82.0631,9.77,1111122 
SCCF RECON,ioos:station:SCCF:11:1,2015-09-03T03:00:00Z,26.4679,-82.0631,9.99,1111122 
SCCF RECON,ioos:station:SCCF:11:1,2015-09-03T03:15:00Z,26.4679,-82.0631,10.0,1111122 
SCCF RECON,ioos:station:SCCF:11:1,2015-09-03T03:30:00Z,26.4679,-82.0631,9.93,1111122 
SCCF RECON,ioos:station:SCCF:11:1,2015-09-03T03:45:00Z,26.4679,-82.0631,10.19,1111122 
SCCF RECON,ioos:station:SCCF:11:1,2015-09-03T04:00:00Z,26.4679,-82.0631,9.98,1111122 
SCCF RECON,ioos:station:SCCF:11:1,2015-09-03T04:15:00Z,26.4679,-82.0631,8.87,1111122 
SCCF RECON,ioos:station:SCCF:11:1,2015-09-03T04:30:00Z,26.4679,-82.0631,14.2,1111122 
SCCF RECON,ioos:station:SCCF:11:1,2015-09-03T04:45:00Z,26.4679,-82.0631,11.24,1111122 
SCCF RECON,ioos:station:SCCF:11:1,2015-09-03T05:00:00Z,26.4679,-82.0631,13.22,1111122 
SCCF RECON,ioos:station:SCCF:11:1,2015-09-03T05:15:00Z,26.4679,-82.0631,9.89,1111122 
SCCF RECON,ioos:station:SCCF:11:1,2015-09-03T05:30:00Z,26.4679,-82.0631,10.31,1111122 
SCCF RECON,ioos:station:SCCF:11:1,2015-09-03T05:45:00Z,26.4679,-82.0631,10.39,1111122 
SCCF RECON,ioos:station:SCCF:11:1,2015-09-03T06:00:00Z,26.4679,-82.0631,10.39,1111122 
SCCF RECON,ioos:station:SCCF:11:1,2015-09-03T06:15:00Z,26.4679,-82.0631,10.48,1111122 
SCCF RECON,ioos:station:SCCF:11:1,2015-09-03T06:30:00Z,26.4679,-82.0631,9.92,1111122 
SCCF RECON,ioos:station:SCCF:11:1,2015-09-03T06:45:00Z,26.4679,-82.0631,9.95,1111122 
SCCF RECON,ioos:station:SCCF:11:1,2015-09-03T07:00:00Z,26.4679,-82.0631,9.88,1111122 
SCCF RECON,ioos:station:SCCF:11:1,2015-09-03T07:15:00Z,26.4679,-82.0631,9.73,1111122 
SCCF RECON,ioos:station:SCCF:11:1,2015-09-03T07:30:00Z,26.4679,-82.0631,9.94,1111122 
SCCF RECON,ioos:station:SCCF:11:1,2015-09-03T07:45:00Z,26.4679,-82.0631,9.76,1111122 
SCCF RECON,ioos:station:SCCF:11:1,2015-09-03T08:00:00Z,26.4679,-82.0631,9.93,1111122 
SCCF RECON,ioos:station:SCCF:11:1,2015-09-03T08:15:00Z,26.4679,-82.0631,10.43,1111122 
SCCF RECON,ioos:station:SCCF:11:1,2015-09-03T08:30:00Z,26.4679,-82.0631,10.11,1111122 
SCCF RECON,ioos:station:SCCF:11:1,2015-09-03T08:45:00Z,26.4679,-82.0631,10.65,1111122 
SCCF RECON,ioos:station:SCCF:11:1,2015-09-03T09:00:00Z,26.4679,-82.0631,10.99,1111122 
SCCF RECON,ioos:station:SCCF:11:1,2015-09-03T09:15:00Z,26.4679,-82.0631,8.92,1111122 
SCCF RECON,ioos:station:SCCF:11:1,2015-09-03T09:30:00Z,26.4679,-82.0631,10.54,1111122 
SCCF RECON,ioos:station:SCCF:11:1,2015-09-03T09:45:00Z,26.4679,-82.0631,10.31,1111122 
SCCF RECON,ioos:station:SCCF:11:1,2015-09-03T10:00:00Z,26.4679,-82.0631,10.55,1111122 
SCCF RECON,ioos:station:SCCF:11:1,2015-09-03T10:15:00Z,26.4679,-82.0631,10.21,1111122 
SCCF RECON,ioos:station:SCCF:11:1,2015-09-03T10:30:00Z,26.4679,-82.0631,9.67,1111122 
SCCF RECON,ioos:station:SCCF:11:1,2015-09-03T10:45:00Z,26.4679,-82.0631,9.28,1111122 
SCCF RECON,ioos:station:SCCF:11:1,2015-09-03T11:00:00Z,26.4679,-82.0631,9.59,1111122 
SCCF RECON,ioos:station:SCCF:11:1,2015-09-03T11:15:00Z,26.4679,-82.0631,9.06,1111122 
SCCF RECON,ioos:station:SCCF:11:1,2015-09-03T11:30:00Z,26.4679,-82.0631,8.9,1111122 
SCCF RECON,ioos:station:SCCF:11:1,2015-09-03T11:45:00Z,26.4679,-82.0631,8.88,1111122 
SCCF RECON,ioos:station:SCCF:11:1,2015-09-03T12:00:00Z,26.4679,-82.0631,8.32,1111122 
SCCF RECON,ioos:station:SCCF:11:1,2015-09-03T12:15:00Z,26.4679,-82.0631,8.47,1111122 
SCCF RECON,ioos:station:SCCF:11:1,2015-09-03T12:30:00Z,26.4679,-82.0631,8.16,1111122 
SCCF RECON,ioos:station:SCCF:11:1,2015-09-03T12:45:00Z,26.4679,-82.0631,8.09,1111122 
SCCF RECON,ioos:station:SCCF:11:1,2015-09-03T13:00:00Z,26.4679,-82.0631,7.86,1111122 
SCCF RECON,ioos:station:SCCF:11:1,2015-09-03T13:15:00Z,26.4679,-82.0631,7.59,1111122 
SCCF RECON,ioos:station:SCCF:11:1,2015-09-03T13:30:00Z,26.4679,-82.0631,7.71,1111122 
SCCF RECON,ioos:station:SCCF:11:1,2015-09-03T13:45:00Z,26.4679,-82.0631,7.21,1111122 
SCCF RECON,ioos:station:SCCF:11:1,2015-09-03T14:00:00Z,26.4679,-82.0631,7.38,1111122 
SCCF RECON,ioos:station:SCCF:11:1,2015-09-03T14:15:00Z,26.4679,-82.0631,7.3,1111122 
SCCF RECON,ioos:station:SCCF:11:1,2015-09-03T14:30:00Z,26.4679,-82.0631,7.38,1111122 
SCCF RECON,ioos:station:SCCF:11:1,2015-09-03T14:45:00Z,26.4679,-82.0631,7.22,1111122 
SCCF RECON,ioos:station:SCCF:11:1,2015-09-03T15:00:00Z,26.4679,-82.0631,6.86,1111122 
SCCF RECON,ioos:station:SCCF:11:1,2015-09-03T15:15:00Z,26.4679,-82.0631,7.04,1111122 
SCCF RECON,ioos:station:SCCF:11:1,2015-09-03T15:30:00Z,26.4679,-82.0631,7.09,1111122 
SCCF RECON,ioos:station:SCCF:11:1,2015-09-03T15:45:00Z,26.4679,-82.0631,6.87,1111122 
SCCF RECON,ioos:station:SCCF:11:1,2015-09-03T16:00:00Z,26.4679,-82.0631,7.21,1111122 
SCCF RECON,ioos:station:SCCF:11:1,2015-09-03T16:15:00Z,26.4679,-82.0631,7.73,1111122 
SCCF RECON,ioos:station:SCCF:11:1,2015-09-03T16:30:00Z,26.4679,-82.0631,8.11,1111122 
SCCF RECON,ioos:station:SCCF:11:1,2015-09-03T16:45:00Z,26.4679,-82.0631,8.56,1111122 
SCCF RECON,ioos:station:SCCF:11:1,2015-09-03T17:00:00Z,26.4679,-82.0631,8.94,1111122 
SCCF RECON,ioos:station:SCCF:11:1,2015-09-03T17:15:00Z,26.4679,-82.0631,10.17,1111122 
SCCF RECON,ioos:station:SCCF:11:1,2015-09-03T17:30:00Z,26.4679,-82.0631,10.04,1111122 
SCCF RECON,ioos:station:SCCF:11:1,2015-09-03T17:45:00Z,26.4679,-82.0631,9.91,1111122 
SCCF RECON,ioos:station:SCCF:11:1,2015-09-03T18:00:00Z,26.4679,-82.0631,11.45,1111122 
SCCF RECON,ioos:station:SCCF:11:1,2015-09-03T18:15:00Z,26.4679,-82.0631,11.84,1111122 
SCCF RECON,ioos:station:SCCF:11:1,2015-09-03T18:30:00Z,26.4679,-82.0631,11.48,1111122 
SCCF RECON,ioos:station:SCCF:11:1,2015-09-03T18:45:00Z,26.4679,-82.0631,10.91,1111122 
SCCF RECON,ioos:station:SCCF:11:1,2015-09-03T19:00:00Z,26.4679,-82.0631,10.3,1111122 
SCCF RECON,ioos:station:SCCF:11:1,2015-09-03T19:15:00Z,26.4679,-82.0631,10.69,1111122 
SCCF RECON,ioos:station:SCCF:11:1,2015-09-03T19:30:00Z,26.4679,-82.0631,10.31,1111122 
SCCF RECON,ioos:station:SCCF:11:1,2015-09-03T19:45:00Z,26.4679,-82.0631,10.21,1111122 
SCCF RECON,ioos:station:SCCF:11:1,2015-09-03T20:00:00Z,26.4679,-82.0631,11.05,1111122 
SCCF RECON,ioos:station:SCCF:11:1,2015-09-03T20:15:00Z,26.4679,-82.0631,10.72,1111122 
SCCF RECON,ioos:station:SCCF:11:1,2015-09-03T20:30:00Z,26.4679,-82.0631,11.25,1111122 
SCCF RECON,ioos:station:SCCF:11:1,2015-09-03T20:45:00Z,26.4679,-82.0631,12.14,1111122 
SCCF RECON,ioos:station:SCCF:11:1,2015-09-03T21:00:00Z,26.4679,-82.0631,12.06,1111122 
SCCF RECON,ioos:station:SCCF:11:1,2015-09-03T21:15:00Z,26.4679,-82.0631,12.22,1111122 